星链-3897 (STARLINK-3897 )

导读 | 豆包AI

STARLINK-3897是美国太空探索技术公司(SpaceX)发射的星链卫星,于2022年5月13日升空,属于星链星座网络的组成部分。星链计划旨在通过近地轨道卫星群搭建全球卫星互联网,为全球提供高速低延迟网络服务,该卫星的发射进一步扩充了星链系统的在轨规模。

基本信息
目录编号:
52537
目录名称:
STARLINK-3897
国际标识:
2022-051E
轨道中心:
EARTH
卫星名称:
星链-3897
卫星全名:
星链-3897 (STARLINK-3897 )
卫星状态:
在轨 (已飞行1401 天)
发射日期:
2022-05-13 UTC
国别 :
美国 (US)
星等 :
--
轨道信息
数据来源 国际轨道数据
星历时间: 2026-03-14T20:28:33+0800
11小时前
查看轨道信息
半长轴: 6917.891km
偏心率: 0.0001325
轨道倾角: 53.216°
近地点辐角 91.607°
升交点赤经 107.246°
平近点角 268.507°
近地点: 538.837km
远地点: 540.671km
周期: 95.438分钟
每日圈数: 15.088366
详细信息
固有亮度:
5
最大亮度:
2.5
卫星平台:
Starlink v1.5
覆盖范围:
全球
运营商:
太空探索技术公司
运营商所在国:
美国
制造商(研发单位):
太空探索技术公司
制造商所在国:
美国
使用方式:
暂无
卫星简介
星链(Starlink)计划是由太空探索技术公司(SpaceX)提出的一个巨型低轨卫星互联网星座项目,计划在2019年至2024年间在太空搭建由约1.2万颗卫星组成的“星链”网络,其中1584颗将部署在地球上空550千米处的近地轨道,并从2020年开始工作。该卫星仍在工作。
2D轨道图
3D轨道图
轨道高度分析图
轨道倾角分析图
轨道综合分析图
查看轨道综合分析图